SCP
0 0 0 0 0 0 0 0 0 0 0 0 0 0 0 0 0 0 0 0 0 0 0 0 0 0 0 0 0 0 -0 -0 0 0 0 0 0 0 0 0 0 0 0 0 0 0 0
0 0 0 0 0 0 0 0 0 0 0 0 0 0 0 0 0 0 0 0 0 0 0 0 0 0 0 0 0 0 0 0 0 0 0 0 0 0 0 0 0 0 0 0 0 0 0
0 0 0 0 0 0 0 0 0 0 0 0 0 0 0 0 0 0 0 0 0 0 0 0 0 0 0 0 0 0 0 0 0 0 0 0 0 0 0 0 0 0 0 0 0 0 0
0 0 0 0 0 0 0 0 0 0 0 0 0 0 0 0 0 0 0 0 0 0 0 0 0 0 0 -0 0 0 0 0 0 0 0 0 0 0 0 0 0 0 0 0 0 0 0
0 0 0 0 0 0 0 0 0 0 0 0 0 0 0 0 0 0 0 0 0 -0 0 -0 0 0 0 0 0 0 0 0 0 0 0 0 0 0 0 0 0 0 0 0 0 0 0
0 0 0 0 0 0 0 0 0 0 0 0 0 0 0 0 0 0 0 0 0 0 0 0 0 0 0 0 0 0 -0 0 0 0 0 0 0 0 0 0 0 0 0 0 0 0 0
0 0 0 0 0 0 0 0 0 0 0 0 0 0 0 0 0 0 0 0 0 0 0 0 0 0 0 0 0 0 0 0 0 0 0 0 0 0 0 0 0 0 0 0 0 0 0
0 0 0 0 0 0 0 0 0 0 0 0 0 0 0 0 0 0 0 0 0 0 0 0 0 0 0 0 0 0 0 0 0 0 0 0 0 0 0 0 0 0 0 0 0 0 0
0 0 0 0 0 0 0 0 0 0 0 0 0 0 0 0 0 0 0 0 0 0 0 0 0 0 0 0 0 0 0 0 0 0 0 0 0 0 0 0 0 0 0 0 0 0 0
0 0 0 0 0 0 0 0 0 0 0 0 0 0 0 0 0 0 0 0 0 0 0 0 0 0 0 0 0 -0 0 0 0 0 0 0 0 0 0 0 0 0 0 0 0 0 0
0 0 0 0 0 0 0 0 0 0 0 0 0 0 0 0 0 0 0 0 0 0 0 0 0 0 0 0 0 0 0 0 0 0 0 0 0 0 0 0 0 0 0 0 0 0 0
0 0 0 0 0 0 0 0 0 0 0 0 0 0 0 0 0 0 0 0 0 0 0 0 0 0 0 0 0 0 0 0 0 0 0 0 0 0 0 0 0 0 0 0 0 0 0
0 0 0 0 0 0 0 0 0 0 0 0 0 0 0 0 0 0 0 0 0 0 0 0 0 0 0 0 0 0 0 0 0 0 0 0 0 0 0 0 0 0 0 0 0 0 0
0 0 0 0 0 0 0 0 0 0 -0 0 0 0 0 0 0 0 0 0 0 0 0 0 0 0 0 0 0 0 0 0 0 0 0 0 0 0 0 0 0 0 0 0 0 0 0
0 0 0 0 0 0 0 0 -0 -0 0 0 0 0 0 0 0 0 0 0 0 0 0 0 0 0 0 0 0 0 0 0 0 0 0 0 0 0 0 0 0 0 0 0 0 0 0
0 0 0 0 0 0 0 -0 0 0 0 0 0 0 0 0 0 0 0 0 0 0 0 0 0 0 0 0 0 0 0 0 0 0 0 0 0 0 0 0 0 0 0 0 0 0 0
0 0 0 0 0 0 0 -0 0 0 0 0 0 0 0 0 0 0 0 0 0 0 0 0 0 0 0 0 0 0 0 0 0 0 0 0 0 0 0 0 0 0 0 0 0 0 0
0 0 0 0 0 0 0 0 0 0 0 0 0 0 0 0 0 0 0 0 0 0 0 0 0 0 0 0 0 0 0 0 0 0 0 0 0 0 0 0 0 -0 0 0 0 0 0
0 0 0 0 0 -0 0 0 0 0 0 0 0 0 0 0 0 0 0 0 0 0 0 0 0 0 0 0 0 0 0 0 0 0 0 0 0 -0 0 -0 0 0 0 -0 -0 -0 0
0 0 0 0 -0 -0 0 0 0 0 0 0 0 0 0 0 0 0 0 0 0 0 0 0 0 0 0 0 0 0 0 0 0 0 0 0 0 0 0 0 -0 0 -0 0 -0 0 0
0 0 0 -0 -0 -0 0 0 0 0 0 0 0 0 0 0 0 0 0 0 0 0 0 0 0 0 0 0 0 0 -0 -0 0 0 0 0 -0 -0 0 0 -0 -0 0 0 -0 0 0
0 0 -0 -0 -0 0 0 0 0 0 0 0 0 0 0 0 0 0 0 -0 0 0 0 0 0 0 0 0 0 -0 -0 0 -0 0 -0 0 0 0 0 0 0 0 0 0 0 0 -0
-0 -0 -0 -0 0 0 0 0 0 0 0 0 0 0 0 0 0 0 0 0 0 0 0 0 0 0 0 -0 -0 -0 -0 -0 -0 0 -0 0 0 0 0 0 -0 -0 0 -0 -0 0 0
0 0 0 0 0 0 0 0 0 0 0 0 0 0 0 0 0 0 0 0 0 0 0 0 0 -0 -0 -0 -0 -0 -0 -0 0 0 0 0 0 -0 0 -0 -0 -0 -0 -0 -0 0 0
0 0 0 0 0 0 0 0 0 0 0 0 0 0 0 0 0 0 -0 0 0 0 0 0 -0 -0 -0 0 0 -0 -0 0 -0 0 -0 0 -0 -0 0 0 -0 0 -0 -0 -0 0 -0
0 -0 0 0 0 0 0 0 0 0 0 0 0 0 0 0 0 -0 -0 0 0 0 0 0 0 -0 0 0 0 0 -0 -0 0 -0 0 -0 0 -0 0 0 0 -0 -0 -0 -0 0 -0
0 0 0 0 0 0 0 0 0 0 0 0 0 0 0 0 0 -0 0 0 0 0 0 0 -0 -0 0 -0 0 0 0 -0 -0 -0 -0 0 0 -0 0 -0 0 -0 -0 -0 0 -0 -0
0 0 0 0 0 0 0 0 0 0 0 0 0 0 0 0 0 -0 0 0 0 0 0 0 0 -0 0 -0 0 0 0 -0 -0 -0 -0 -0 0 0 0 -0 -0 0 -0 0 0 -0 -0
0 0 0 0 0 0 0 0 0 0 0 0 0 0 0 0 0 0 0 0 0 0 0 0 0 0 -0 -0 -0 0 0 -0 -0 -0 -0 -0 -0 0 0 -0 -0 -0 -0 -0 0 -0 -0
Wind_Speed_500mb
57 56 57 53 49 47 47 42 33 27 25 23 23 23 22 21 21 24 27 28 32 33 34 35 35 32 25 12 22 16 18 23 21 20 28 19 28 35 21 15 39 37 31 52 58 61 60
64 62 64 56 52 49 47 41 34 29 26 25 22 23 24 23 24 27 30 32 34 35 35 33 29 24 14 12 6 14 22 21 22 21 28 29 32 34 42 35 19 31 39 39 48 50 53
79 71 66 60 53 48 42 38 35 30 29 28 24 23 25 26 26 29 31 33 33 30 27 23 18 16 14 31 18 22 15 23 21 21 23 27 35 33 42 21 34 33 25 32 30 35 32
95 80 59 55 52 44 41 39 34 31 30 29 26 24 24 26 28 30 32 33 29 27 19 13 11 9 12 6 8 7 25 26 22 24 20 22 24 31 26 31 29 18 17 14 17 22 31
102 80 68 64 60 58 49 42 36 31 32 29 26 24 25 25 27 29 29 30 23 9 11 7 6 4 14 16 12 30 15 17 26 30 34 27 32 18 27 10 13 10 18 25 40 29 33
93 86 82 74 62 60 54 47 38 33 35 30 25 25 25 24 25 27 28 27 16 16 10 2 3 13 6 14 21 14 17 26 26 19 20 27 25 9 5 3 15 9 13 21 35 17 27
91 82 89 71 67 63 57 48 41 36 36 30 26 24 22 22 20 20 20 9 6 4 11 13 7 15 13 21 11 16 21 34 28 17 9 25 7 13 24 28 36 31 31 41 38 36 20
109 99 87 76 72 66 58 47 42 37 33 31 28 22 20 16 12 10 7 6 8 10 14 13 12 11 5 13 22 15 25 22 26 14 20 11 13 27 27 28 29 28 31 30 29 21 20
108 105 86 84 79 64 54 47 44 36 35 29 23 19 17 10 4 7 15 10 11 6 7 11 17 14 5 13 15 35 24 14 14 16 24 17 25 32 27 26 25 27 27 18 29 28 22
110 91 88 80 73 63 53 48 40 38 37 26 23 20 13 7 7 10 3 14 19 2 4 12 12 4 6 16 9 16 21 15 12 14 26 16 14 34 31 32 24 34 19 20 25 20 22
107 94 92 79 68 56 51 46 42 39 34 26 23 20 14 16 14 10 9 16 14 3 2 19 11 9 7 15 25 3 27 14 14 26 14 16 30 30 31 25 28 41 40 35 20 16 13
98 98 86 72 58 56 55 47 46 37 30 25 22 19 16 16 10 7 9 5 3 7 8 6 9 5 5 20 24 15 16 34 47 23 20 24 38 23 19 23 29 33 43 35 16 7 21
100 91 77 61 64 63 53 49 40 34 31 26 23 22 25 19 15 16 1 8 6 4 12 9 5 6 12 15 8 11 11 16 8 14 12 22 20 17 13 16 20 34 26 11 17 14 25
98 86 73 74 72 63 56 45 37 31 27 24 22 20 23 27 19 8 18 6 4 5 13 8 9 16 11 2 4 10 11 10 18 12 11 11 17 26 38 27 18 17 7 10 13 11 22
90 77 73 69 64 56 50 43 34 30 27 25 22 21 14 12 4 23 12 5 1 9 7 10 14 11 9 11 10 11 13 15 10 13 8 13 19 29 33 33 20 19 14 5 14 16 14
81 78 73 70 60 58 46 38 33 25 27 32 31 18 18 6 12 20 5 5 7 10 9 8 3 11 12 18 13 15 9 15 26 21 21 12 21 23 24 27 29 10 5 7 6 8 10
85 78 71 64 56 39 41 34 28 27 34 34 32 12 13 9 15 7 5 2 12 17 11 6 11 10 10 11 15 16 10 21 26 27 24 12 12 20 24 9 28 23 15 3 7 12 6
85 75 64 56 50 48 43 33 29 32 41 35 14 5 10 12 7 9 5 5 6 8 10 5 3 6 9 12 9 9 14 17 30 22 14 13 7 16 25 28 27 12 8 5 8 8 3
67 64 65 59 43 44 37 32 32 41 45 30 15 10 15 7 5 2 4 11 7 1 10 8 7 7 6 7 9 11 10 16 15 10 8 10 6 12 13 7 10 13 19 7 5 6 6
70 69 56 47 40 42 37 33 34 46 38 20 8 5 5 2 6 10 7 6 11 9 1 2 6 7 9 10 12 13 12 13 36 34 10 13 4 16 19 25 19 8 35 33 12 5 6
66 59 54 43 35 34 30 29 39 46 30 15 6 5 11 4 5 9 6 9 5 6 3 9 2 19 10 5 13 9 21 23 22 36 5 2 4 13 19 25 29 32 34 20 22 13 9
55 49 42 33 34 39 37 33 40 41 27 12 6 7 7 15 25 14 6 8 5 15 5 5 7 8 9 6 4 15 20 12 11 11 15 1 6 6 16 23 25 23 25 23 14 28 12
50 42 37 36 41 38 35 36 42 42 24 12 7 11 11 10 5 9 8 7 17 8 7 1 6 7 10 9 32 44 46 51 26 21 10 7 5 6 9 14 25 10 13 23 29 12 14
47 41 35 38 39 37 34 38 46 38 25 23 17 8 10 3 7 7 16 18 15 14 5 8 17 5 20 38 43 43 10 19 13 10 18 8 7 4 7 10 4 16 36 22 27 43 38
43 38 37 36 42 36 32 42 45 31 25 28 17 12 5 4 16 13 18 11 10 12 7 11 8 12 24 29 7 9 8 2 7 11 7 10 2 7 2 3 14 34 33 23 22 13 39
36 32 43 41 39 35 31 47 41 31 31 23 17 12 8 4 8 27 18 14 5 3 5 9 14 16 17 2 5 5 3 7 8 14 14 16 7 3 0 4 6 16 33 47 28 4 38
34 39 41 39 39 32 34 44 41 35 27 24 20 13 13 12 9 13 8 5 1 5 4 10 8 16 23 4 4 3 5 8 6 8 11 10 8 6 8 5 8 26 43 43 9 12 50
34 35 32 38 40 34 35 40 44 34 25 28 19 18 19 12 14 9 10 6 8 10 5 9 6 10 9 10 5 5 3 5 4 3 5 4 6 6 7 10 8 38 13 12 11 26 35
39 36 46 47 41 33 39 41 41 34 24 18 20 17 20 14 5 5 10 8 7 7 9 7 4 1 5 6 5 4 4 6 4 3 2 6 3 5 6 3 4 12 4 23 23 23 29
Wind_Direction_500mb
262 264 266 268 273 277 277 273 275 274 270 270 273 274 276 281 288 292 297 302 302 303 303 304 303 305 313 297 274 286 329 318 303 330 311 305 289 285 251 248 244 257 261 262 265 268 269
259 260 263 266 266 267 267 266 267 266 266 265 262 268 274 284 291 296 301 304 305 307 309 306 303 297 289 258 182 345 336 318 315 304 286 288 282 283 284 277 273 277 280 279 279 271 272
269 254 254 258 258 255 252 257 259 259 261 260 257 263 276 286 292 297 300 301 304 310 314 313 315 292 260 256 292 302 325 321 307 297 293 293 292 306 314 321 305 310 312 308 293 277 281
261 256 238 239 244 245 246 251 252 254 253 255 258 264 276 287 293 298 300 301 310 315 311 312 313 283 261 278 350 352 307 288 290 275 288 282 285 287 288 292 303 315 301 286 280 302 278
257 252 247 248 247 254 242 244 247 252 252 251 256 265 276 284 292 298 300 299 307 318 14 15 90 335 282 329 301 303 306 296 304 301 293 274 278 277 276 280 302 236 261 276 286 263 274
252 251 249 257 256 242 236 232 234 240 246 246 256 266 277 282 297 304 311 301 287 286 285 339 212 288 289 330 311 310 354 303 289 289 276 257 250 206 280 208 253 244 258 270 271 268 255
259 248 240 234 230 225 227 227 228 224 236 242 252 264 271 287 302 315 325 295 289 281 229 274 276 281 322 318 308 321 2 339 4 267 230 254 154 222 230 219 235 246 252 264 275 286 275
257 242 222 220 219 222 221 217 224 219 230 240 244 254 267 279 301 334 325 60 52 317 318 230 233 252 335 336 310 332 359 9 348 326 317 326 227 236 248 245 251 253 255 265 284 282 275
249 238 212 212 217 217 213 211 211 218 230 232 244 248 261 273 255 43 354 50 316 293 261 262 221 265 294 310 296 299 342 351 314 326 318 305 290 311 315 304 301 281 260 266 260 274 276
228 212 207 205 208 207 208 208 209 214 223 225 231 232 238 213 143 92 143 289 330 352 15 164 203 205 245 307 283 310 11 4 318 304 313 274 328 326 318 312 315 300 321 307 311 290 278
214 204 202 202 207 207 199 202 212 211 214 217 222 221 211 181 137 78 240 296 341 19 271 169 122 145 326 294 319 299 356 346 306 294 290 260 291 288 296 295 303 290 300 292 285 296 299
205 201 202 203 205 190 196 206 215 211 213 211 211 211 181 150 164 233 283 357 76 55 232 120 127 126 300 330 297 325 3 341 304 275 276 274 276 251 260 300 295 289 277 283 270 267 268
201 199 195 193 186 192 197 212 215 214 212 204 200 199 175 166 169 225 309 81 51 190 183 130 84 13 335 287 1 23 357 306 308 328 318 310 297 310 19 347 333 359 353 305 269 243 250
194 192 188 181 188 189 194 209 217 213 207 200 190 185 177 191 221 200 133 64 202 124 58 29 20 323 272 284 46 1 311 314 316 3 348 338 329 356 342 340 316 331 43 266 261 249 254
186 183 181 185 182 184 201 208 211 205 199 179 163 159 176 187 188 152 119 130 323 9 11 15 321 258 283 67 47 355 326 289 6 6 322 311 280 320 323 332 331 308 291 169 298 245 257
176 176 181 177 182 189 206 196 194 191 175 159 144 136 165 255 166 144 89 215 116 60 35 7 298 30 10 357 343 340 298 4 342 10 23 332 313 315 319 333 318 290 329 352 256 276 232
174 178 176 180 180 193 182 190 181 171 160 155 149 153 188 191 145 141 156 55 114 91 44 5 19 356 356 351 356 327 316 326 20 2 343 287 280 307 318 298 297 333 290 235 296 262 282
173 174 175 174 180 175 185 183 167 162 156 150 150 109 163 162 136 232 99 36 69 84 153 174 212 311 6 340 291 307 334 19 351 10 335 15 284 294 313 306 315 297 18 34 242 335 323
159 159 167 172 175 179 180 169 162 158 157 148 143 102 140 154 126 69 151 90 29 331 60 30 11 46 333 332 334 321 309 339 345 5 358 349 333 314 314 8 5 359 307 239 245 245 247
159 161 166 168 172 178 170 165 163 158 160 157 125 103 133 231 332 133 143 117 137 100 88 154 250 270 38 356 330 303 351 337 341 333 282 18 265 272 282 281 284 300 289 279 194 218 289
158 156 165 172 176 182 170 161 164 166 163 137 134 165 155 172 323 110 120 134 147 139 147 234 60 47 12 329 305 351 332 325 319 304 140 132 281 314 309 308 302 298 300 313 304 263 169
158 166 169 171 165 169 168 165 166 167 155 124 108 96 109 113 128 109 75 222 200 114 98 12 48 344 312 270 228 309 312 321 276 296 345 273 270 282 307 296 281 317 310 325 306 302 248
167 166 164 164 165 166 163 160 165 162 155 107 100 106 118 129 161 129 198 113 89 75 243 88 197 224 282 349 318 292 281 270 255 292 308 255 298 319 262 314 321 316 21 339 334 8 12
165 167 169 168 170 163 161 159 158 159 145 124 91 81 104 224 175 163 116 120 136 186 187 282 272 39 349 322 310 303 281 81 59 174 185 287 323 248 277 304 284 59 24 352 358 31 20
168 171 168 164 167 167 162 160 156 147 131 127 88 118 104 154 133 111 127 116 167 218 203 272 29 31 330 312 335 339 1 160 210 175 23 22 353 296 160 292 265 31 343 328 345 15 13
167 166 169 163 162 162 158 159 153 143 136 133 115 130 106 77 355 172 144 187 200 184 331 205 64 15 320 354 12 348 72 314 358 336 347 339 123 299 281 243 37 339 318 326 314 171 360
158 162 166 167 165 159 155 157 159 150 140 144 120 121 101 90 71 70 92 109 88 66 196 67 15 12 20 8 15 3 16 4 6 349 327 337 349 335 331 327 81 348 335 344 44 321 331
167 169 167 164 161 162 156 152 163 156 137 148 127 129 128 94 77 80 87 40 44 37 81 318 67 12 16 36 58 329 16 276 38 329 326 344 350 330 351 18 356 3 357 44 296 314 333
173 170 156 154 150 158 159 151 158 159 133 137 139 149 140 101 89 178 198 215 110 67 99 23 338 349 109 69 24 9 335 358 340 292 343 17 3 326 335 36 28 18 7 13 349 335 351
Wind_Speed_850mb
57 56 57 53 49 47 47 42 33 27 25 23 23 23 22 21 21 24 27 28 32 33 34 35 35 32 25 12 22 16 18 23 21 20 28 19 28 35 21 15 39 37 31 52 58 61 60
64 62 64 56 52 49 47 41 34 29 26 25 22 23 24 23 24 27 30 32 34 35 35 33 29 24 14 12 6 14 22 21 22 21 28 29 32 34 42 35 19 31 39 39 48 50 53
79 71 66 60 53 48 42 38 35 30 29 28 24 23 25 26 26 29 31 33 33 30 27 23 18 16 14 31 18 22 15 23 21 21 23 27 35 33 42 21 34 33 25 32 30 35 32
95 80 59 55 52 44 41 39 34 31 30 29 26 24 24 26 28 30 32 33 29 27 19 13 11 9 12 6 8 7 25 26 22 24 20 22 24 31 26 31 29 18 17 14 17 22 31
102 80 68 64 60 58 49 42 36 31 32 29 26 24 25 25 27 29 29 30 23 9 11 7 6 4 14 16 12 30 15 17 26 30 34 27 32 18 27 10 13 10 18 25 40 29 33
93 86 82 74 62 60 54 47 38 33 35 30 25 25 25 24 25 27 28 27 16 16 10 2 3 13 6 14 21 14 17 26 26 19 20 27 25 9 5 3 15 9 13 21 35 17 27
91 82 89 71 67 63 57 48 41 36 36 30 26 24 22 22 20 20 20 9 6 4 11 13 7 15 13 21 11 16 21 34 28 17 9 25 7 13 24 28 36 31 31 41 38 36 20
109 99 87 76 72 66 58 47 42 37 33 31 28 22 20 16 12 10 7 6 8 10 14 13 12 11 5 13 22 15 25 22 26 14 20 11 13 27 27 28 29 28 31 30 29 21 20
108 105 86 84 79 64 54 47 44 36 35 29 23 19 17 10 4 7 15 10 11 6 7 11 17 14 5 13 15 35 24 14 14 16 24 17 25 32 27 26 25 27 27 18 29 28 22
110 91 88 80 73 63 53 48 40 38 37 26 23 20 13 7 7 10 3 14 19 2 4 12 12 4 6 16 9 16 21 15 12 14 26 16 14 34 31 32 24 34 19 20 25 20 22
107 94 92 79 68 56 51 46 42 39 34 26 23 20 14 16 14 10 9 16 14 3 2 19 11 9 7 15 25 3 27 14 14 26 14 16 30 30 31 25 28 41 40 35 20 16 13
98 98 86 72 58 56 55 47 46 37 30 25 22 19 16 16 10 7 9 5 3 7 8 6 9 5 5 20 24 15 16 34 47 23 20 24 38 23 19 23 29 33 43 35 16 7 21
100 91 77 61 64 63 53 49 40 34 31 26 23 22 25 19 15 16 1 8 6 4 12 9 5 6 12 15 8 11 11 16 8 14 12 22 20 17 13 16 20 34 26 11 17 14 25
98 86 73 74 72 63 56 45 37 31 27 24 22 20 23 27 19 8 18 6 4 5 13 8 9 16 11 2 4 10 11 10 18 12 11 11 17 26 38 27 18 17 7 10 13 11 22
90 77 73 69 64 56 50 43 34 30 27 25 22 21 14 12 4 23 12 5 1 9 7 10 14 11 9 11 10 11 13 15 10 13 8 13 19 29 33 33 20 19 14 5 14 16 14
81 78 73 70 60 58 46 38 33 25 27 32 31 18 18 6 12 20 5 5 7 10 9 8 3 11 12 18 13 15 9 15 26 21 21 12 21 23 24 27 29 10 5 7 6 8 10
85 78 71 64 56 39 41 34 28 27 34 34 32 12 13 9 15 7 5 2 12 17 11 6 11 10 10 11 15 16 10 21 26 27 24 12 12 20 24 9 28 23 15 3 7 12 6
85 75 64 56 50 48 43 33 29 32 41 35 14 5 10 12 7 9 5 5 6 8 10 5 3 6 9 12 9 9 14 17 30 22 14 13 7 16 25 28 27 12 8 5 8 8 3
67 64 65 59 43 44 37 32 32 41 45 30 15 10 15 7 5 2 4 11 7 1 10 8 7 7 6 7 9 11 10 16 15 10 8 10 6 12 13 7 10 13 19 7 5 6 6
70 69 56 47 40 42 37 33 34 46 38 20 8 5 5 2 6 10 7 6 11 9 1 2 6 7 9 10 12 13 12 13 36 34 10 13 4 16 19 25 19 8 35 33 12 5 6
66 59 54 43 35 34 30 29 39 46 30 15 6 5 11 4 5 9 6 9 5 6 3 9 2 19 10 5 13 9 21 23 22 36 5 2 4 13 19 25 29 32 34 20 22 13 9
55 49 42 33 34 39 37 33 40 41 27 12 6 7 7 15 25 14 6 8 5 15 5 5 7 8 9 6 4 15 20 12 11 11 15 1 6 6 16 23 25 23 25 23 14 28 12
50 42 37 36 41 38 35 36 42 42 24 12 7 11 11 10 5 9 8 7 17 8 7 1 6 7 10 9 32 44 46 51 26 21 10 7 5 6 9 14 25 10 13 23 29 12 14
47 41 35 38 39 37 34 38 46 38 25 23 17 8 10 3 7 7 16 18 15 14 5 8 17 5 20 38 43 43 10 19 13 10 18 8 7 4 7 10 4 16 36 22 27 43 38
43 38 37 36 42 36 32 42 45 31 25 28 17 12 5 4 16 13 18 11 10 12 7 11 8 12 24 29 7 9 8 2 7 11 7 10 2 7 2 3 14 34 33 23 22 13 39
36 32 43 41 39 35 31 47 41 31 31 23 17 12 8 4 8 27 18 14 5 3 5 9 14 16 17 2 5 5 3 7 8 14 14 16 7 3 0 4 6 16 33 47 28 4 38
34 39 41 39 39 32 34 44 41 35 27 24 20 13 13 12 9 13 8 5 1 5 4 10 8 16 23 4 4 3 5 8 6 8 11 10 8 6 8 5 8 26 43 43 9 12 50
34 35 32 38 40 34 35 40 44 34 25 28 19 18 19 12 14 9 10 6 8 10 5 9 6 10 9 10 5 5 3 5 4 3 5 4 6 6 7 10 8 38 13 12 11 26 35
39 36 46 47 41 33 39 41 41 34 24 18 20 17 20 14 5 5 10 8 7 7 9 7 4 1 5 6 5 4 4 6 4 3 2 6 3 5 6 3 4 12 4 23 23 23 29
Wind_Direction_850mb
262 264 266 268 273 277 277 273 275 274 270 270 273 274 276 281 288 292 297 302 302 303 303 304 303 305 313 297 274 286 329 318 303 330 311 305 289 285 251 248 244 257 261 262 265 268 269
259 260 263 266 266 267 267 266 267 266 266 265 262 268 274 284 291 296 301 304 305 307 309 306 303 297 289 258 182 345 336 318 315 304 286 288 282 283 284 277 273 277 280 279 279 271 272
269 254 254 258 258 255 252 257 259 259 261 260 257 263 276 286 292 297 300 301 304 310 314 313 315 292 260 256 292 302 325 321 307 297 293 293 292 306 314 321 305 310 312 308 293 277 281
261 256 238 239 244 245 246 251 252 254 253 255 258 264 276 287 293 298 300 301 310 315 311 312 313 283 261 278 350 352 307 288 290 275 288 282 285 287 288 292 303 315 301 286 280 302 278
257 252 247 248 247 254 242 244 247 252 252 251 256 265 276 284 292 298 300 299 307 318 14 15 90 335 282 329 301 303 306 296 304 301 293 274 278 277 276 280 302 236 261 276 286 263 274
252 251 249 257 256 242 236 232 234 240 246 246 256 266 277 282 297 304 311 301 287 286 285 339 212 288 289 330 311 310 354 303 289 289 276 257 250 206 280 208 253 244 258 270 271 268 255
259 248 240 234 230 225 227 227 228 224 236 242 252 264 271 287 302 315 325 295 289 281 229 274 276 281 322 318 308 321 2 339 4 267 230 254 154 222 230 219 235 246 252 264 275 286 275
257 242 222 220 219 222 221 217 224 219 230 240 244 254 267 279 301 334 325 60 52 317 318 230 233 252 335 336 310 332 359 9 348 326 317 326 227 236 248 245 251 253 255 265 284 282 275
249 238 212 212 217 217 213 211 211 218 230 232 244 248 261 273 255 43 354 50 316 293 261 262 221 265 294 310 296 299 342 351 314 326 318 305 290 311 315 304 301 281 260 266 260 274 276
228 212 207 205 208 207 208 208 209 214 223 225 231 232 238 213 143 92 143 289 330 352 15 164 203 205 245 307 283 310 11 4 318 304 313 274 328 326 318 312 315 300 321 307 311 290 278
214 204 202 202 207 207 199 202 212 211 214 217 222 221 211 181 137 78 240 296 341 19 271 169 122 145 326 294 319 299 356 346 306 294 290 260 291 288 296 295 303 290 300 292 285 296 299
205 201 202 203 205 190 196 206 215 211 213 211 211 211 181 150 164 233 283 357 76 55 232 120 127 126 300 330 297 325 3 341 304 275 276 274 276 251 260 300 295 289 277 283 270 267 268
201 199 195 193 186 192 197 212 215 214 212 204 200 199 175 166 169 225 309 81 51 190 183 130 84 13 335 287 1 23 357 306 308 328 318 310 297 310 19 347 333 359 353 305 269 243 250
194 192 188 181 188 189 194 209 217 213 207 200 190 185 177 191 221 200 133 64 202 124 58 29 20 323 272 284 46 1 311 314 316 3 348 338 329 356 342 340 316 331 43 266 261 249 254
186 183 181 185 182 184 201 208 211 205 199 179 163 159 176 187 188 152 119 130 323 9 11 15 321 258 283 67 47 355 326 289 6 6 322 311 280 320 323 332 331 308 291 169 298 245 257
176 176 181 177 182 189 206 196 194 191 175 159 144 136 165 255 166 144 89 215 116 60 35 7 298 30 10 357 343 340 298 4 342 10 23 332 313 315 319 333 318 290 329 352 256 276 232
174 178 176 180 180 193 182 190 181 171 160 155 149 153 188 191 145 141 156 55 114 91 44 5 19 356 356 351 356 327 316 326 20 2 343 287 280 307 318 298 297 333 290 235 296 262 282
173 174 175 174 180 175 185 183 167 162 156 150 150 109 163 162 136 232 99 36 69 84 153 174 212 311 6 340 291 307 334 19 351 10 335 15 284 294 313 306 315 297 18 34 242 335 323
159 159 167 172 175 179 180 169 162 158 157 148 143 102 140 154 126 69 151 90 29 331 60 30 11 46 333 332 334 321 309 339 345 5 358 349 333 314 314 8 5 359 307 239 245 245 247
159 161 166 168 172 178 170 165 163 158 160 157 125 103 133 231 332 133 143 117 137 100 88 154 250 270 38 356 330 303 351 337 341 333 282 18 265 272 282 281 284 300 289 279 194 218 289
158 156 165 172 176 182 170 161 164 166 163 137 134 165 155 172 323 110 120 134 147 139 147 234 60 47 12 329 305 351 332 325 319 304 140 132 281 314 309 308 302 298 300 313 304 263 169
158 166 169 171 165 169 168 165 166 167 155 124 108 96 109 113 128 109 75 222 200 114 98 12 48 344 312 270 228 309 312 321 276 296 345 273 270 282 307 296 281 317 310 325 306 302 248
167 166 164 164 165 166 163 160 165 162 155 107 100 106 118 129 161 129 198 113 89 75 243 88 197 224 282 349 318 292 281 270 255 292 308 255 298 319 262 314 321 316 21 339 334 8 12
165 167 169 168 170 163 161 159 158 159 145 124 91 81 104 224 175 163 116 120 136 186 187 282 272 39 349 322 310 303 281 81 59 174 185 287 323 248 277 304 284 59 24 352 358 31 20
168 171 168 164 167 167 162 160 156 147 131 127 88 118 104 154 133 111 127 116 167 218 203 272 29 31 330 312 335 339 1 160 210 175 23 22 353 296 160 292 265 31 343 328 345 15 13
167 166 169 163 162 162 158 159 153 143 136 133 115 130 106 77 355 172 144 187 200 184 331 205 64 15 320 354 12 348 72 314 358 336 347 339 123 299 281 243 37 339 318 326 314 171 360
158 162 166 167 165 159 155 157 159 150 140 144 120 121 101 90 71 70 92 109 88 66 196 67 15 12 20 8 15 3 16 4 6 349 327 337 349 335 331 327 81 348 335 344 44 321 331
167 169 167 164 161 162 156 152 163 156 137 148 127 129 128 94 77 80 87 40 44 37 81 318 67 12 16 36 58 329 16 276 38 329 326 344 350 330 351 18 356 3 357 44 296 314 333
173 170 156 154 150 158 159 151 158 159 133 137 139 149 140 101 89 178 198 215 110 67 99 23 338 349 109 69 24 9 335 358 340 292 343 17 3 326 335 36 28 18 7 13 349 335 351